Regional Weather Roundup
Issued by NWS Cleveland, OH

Home | Current Version | Previous Version | Graphics & Text | Print | Product List | Glossary On
Versions: 1 2 3 4 5 6 7 8 9 10 11 12 13 14 15 16 17 18 19 20 21 22 23 24 25 26 27 28 29 30 31 32 33 34 35 36 37 38 39 40 41 42 43 44 45 46 47 48 49 50
000
ASUS41 KCLE 220312
RWRCLE
OHIO REGIONAL WEATHER ROUNDUP
NATIONAL WEATHER SERVICE WILMINGTON, OH
1000 PM EST SUN JAN 21 2018

NOTE: "FAIR" INDICATES FEW OR NO CLOUDS BELOW 12,000 FEET WITH NO
SIGNIFICANT WEATHER AND/OR OBSTRUCTIONS TO VISIBILITY.

OHZ001>008-015>018-024>027-034-035-043-044-220400-
   NORTHWEST OHIO

CITY           SKY/WX    TMP DP  RH WIND       PRES   REMARKS
DEFIANCE       CLOUDY    45  43  93 S7        29.98F FOG
FINDLAY        CLOUDY    46  42  86 S8        30.00F
TOLEDO EXPRESS CLOUDY    44  44 100 S3        30.00F FOG
TOLEDO EXEC    FOG       43  41  93 S5        30.02S VSB 1
LIMA           CLOUDY    49  47  93 S10       30.01S
$$

OHZ009>014-019>023-028>033-038-089-220400-
   NORTHEAST OHIO

CITY           SKY/WX    TMP DP  RH WIND       PRES   REMARKS
CLE-HOPKINS    CLOUDY    45  44  97 S7        30.07S FOG
CLE-LAKEFRONT  CLOUDY    47  44  90 S8        30.04S FOG
CUY CO. ARPT   CLOUDY    46  32  57 S7        30.05S FOG
LORAIN-ELYRIA  FOG       42  38  85 S5        30.04F VSB 1/4
ASHTABULA      CLOUDY    43  42  97 S8        30.06F FOG
AKRON-CANTON   FOG       43  41  93 S5        30.06S VSB 1/2
WOOSTER        CLOUDY    43  42  97 S7        30.06R FOG
MANSFIELD      CLOUDY    47  46  97 S9        30.04S
YOUNGSTOWN     FOG       44  43  96 SW3       30.06S VSB 1/4
$$

OHZ042-051>053-060>062-070>072-077>081-220400-
  SOUTHWEST OHIO

CITY           SKY/WX    TMP DP  RH WIND       PRES   REMARKS
CINC-COVINGTON CLOUDY    52  51  97 S6        30.03S
CINC-LUNKEN    CLOUDY    49  47  93 CALM      30.05F
HAMILTON       CLOUDY    51  50  96 E3        30.04F
DAYTON         CLOUDY    51  51 100 S7        30.03F
WRIGHT-PAT AFB CLOUDY    50  50  98 SE5       30.03F
DAYTON GENERAL CLOUDY    52  49  89 S8        30.03F
WILMINGTON     CLOUDY    48  48 100 CALM      30.04F
$$

OHZ036-037-039>041-045>050-054>059-063>069-073>076-082>088-220400-
  CENTRAL AND SOUTHEAST OHIO

CITY           SKY/WX    TMP DP  RH WIND       PRES   REMARKS
COLUMBUS       CLOUDY    47  47 100 CALM      30.06S FOG
OSU AIRPORT    CLOUDY    49  49 100 S6        30.04F
BOLTON FIELD   FOG       46  46 100 CALM      30.06S VSB 1/2
RICKENBACK AFB FOG       47  47 100 CALM      30.06S VSB 3/4
NEWARK         FOG       38  37  97 CALM      30.06S VSB 1/4
MARION         CLOUDY    45  44  97 S7        30.04S FOG
LANCASTER      LGT RAIN  52  50  93 S6        30.06F FOG
ZANESVILLE     CLOUDY    51  49  92 SW6       30.07F
NEW PHILLY     CLOUDY    42  40  92 SE5       30.08R
$$



USA.gov is the U.S. government's official web portal to all federal, state and local government web resources and services.